Miscellaneous Local Product
Issued by NWS North Platte, NE

Home | Current Version | Previous Version | Text Only | Print | Product List | Glossary On
Versions: 1 2 3 4 5 6 7 8 9 10 11 12 13 14 15 16 17 18 19 20 21 22 23 24 25 26 27 28 29 30 31 32 33 34 35 36 37 38 39 40 41 42 43 44 45 46 47 48 49 50
000
AXUS43 KLBF 220610
MISLBF


WESTERN AND NORTH CENTRAL NEBRASKA HOURLY WEATHER ROUNDUP
NATIONAL WEATHER SERVICE NORTH PLATTE NE
100 AM CDT SUN OCT 22 2017

NOTE: "FAIR" INDICATES FEW OR NO CLOUDS BELOW 12,000 FEET WITH NO
SIGNIFICANT WEATHER AND/OR OBSTRUCTIONS TO VISIBILITY.

NOTE: STATIONS NOT REPORTING VARIABLES SUCH AS SKY/WEATHER OR
PRESSURE ARE PROVIDED BY RAWS AND APRS NETWORKS AND ARE NOT UNDER
NATIONAL WEATHER SERVICE QUALITY CONTROL.

...OBSERVATIONS IN AND NEAR THE EASTERN PANHANDLE OF NEBRASKA...

CITY           SKY/WX    TMP DP  RH WIND       PRES   REMARKS
PINE RIDGE     CLEAR     25  21  85 CALM      30.01S
GORDON         FAIR      32  20  63 SW6       30.01S WCI  26
CHADRON        CLEAR     29  13  51 W10       30.02F WCI  20
ALLIANCE       CLEAR     24  17  74 W10       30.04F HAZE    WCI  14
SIDNEY         CLEAR     37  17  44 W10       30.11R WCI  30
CRESCENT LAKE    N/A     40  17  40 W7          N/A
$$

...OBSERVATIONS IN NORTHERN NEBRASKA AND FAR SOUTHERN SOUTH DAKOTA...

CITY           SKY/WX    TMP DP  RH WIND       PRES   REMARKS
WINNER         FAIR      43  28  55 SW8       29.98S
VALENTINE      CLEAR     32  28  85 SW7       30.01S WCI  26
THEDFORD       CLEAR     33  27  80 SW3       30.06R
AINSWORTH      CLEAR     33  29  85 SW5       30.01S WCI  28
O`NEILL        PTCLDY    39  32  75 W7        30.01R WCI  34
ORD            PTCLDY    34  31  88 SW5       30.04R WCI  30
BROKEN BOW     CLOUDY    34  28  79 CALM      30.06R
VALENTINE NWR    N/A     50  28  43 CALM        N/A
HALSEY           N/A     37  24  60 CALM        N/A
BUTTE            N/A     41  32  69 W3          N/A
CHAMBERS         N/A     38  29  71 CALM        N/A
EWING            N/A     39  32  77 CALM        N/A
$$

...OBSERVATIONS IN SOUTHWEST NEBRASKA AND FAR NORTHEAST COLORADO...

CITY           SKY/WX    TMP DP  RH WIND       PRES   REMARKS
WRAY           FAIR      34  21  60 W7        30.11S WCI  28
HOLYOKE        FAIR      46  19  34 W10G17    30.10R
IMPERIAL       CLEAR     40  21  46 NW7       30.10R
OGALLALA       CLEAR     37  24  59 W5        30.07R WCI  33
NORTH PLATTE   CLEAR     32  28  85 NW6       30.08R WCI  26
MCCOOK         CLEAR     37  26  64 W9        30.10R WCI  30
LEXINGTON      CLEAR     35  28  74 W8        30.07R WCI  29
STAPLETON        N/A     35  24  64 CALM        N/A
GOTHENBURG       N/A     39  22  51 CALM        N/A
CALLAWAY         N/A     38  29  71 NW7         N/A  WCI  33
$$

...OBSERVATIONS IN CENTRAL LINCOLN COUNTY AREA...

CITY           SKY/WX    TMP DP  RH WIND       PRES   REMARKS
N.P. AIRPORT   CLEAR     32  28  85 NW6       30.08R WCI  26
N.P. DOWNTOWN    N/A     37  28  70 CALM        N/A
N.P. SOUTHEAST   N/A     39  26  60 CALM        N/A
N.P. HILLCREST   N/A     37  26  66 NW5         N/A  WCI  33
$$

...SOME OBSERVATIONS FROM AROUND THE REGION...

CITY           SKY/WX    TMP DP  RH WIND       PRES   REMARKS
DENVER         CLEAR     40  12  32 SW13      30.13F WCI  32
LIMON          CLEAR     21  13  71 N6        30.17S WCI  13
ASPEN          CLOUDY    24  20  84 SW6       30.37R WCI  17
LARAMIE        CLEAR     31  14  49 W14       30.16S WCI  21
CASPER         CLEAR     38  14  37 SW12G21   30.06F WCI  30
CHEYENNE       CLEAR     40  14  34 W25G38    30.10F WCI  29
SCOTTSBLUFF    CLEAR     33  18  53 N8        30.07S WCI  26
GRAND ISLAND   CLEAR     39  37  92 SW5       30.06R
OMAHA          CLOUDY    52  40  63 W3        30.00R
SIOUX FALLS    CLEAR     43  37  79 W5        29.95S
PIERRE         CLEAR     43  29  57 W8        29.93S
RAPID CITY     CLEAR     37  16  42 NW5       29.97F WCI  33
BISMARCK       CLEAR     40  31  70 W8        29.83R WCI  34
KANSAS CITY    TSTM      51  49  92 NW8       30.00R
HILL CITY      CLOUDY    38  31  76 W10       30.09R WCI  31
WICHITA        CLOUDY    56  43  61 N10       30.01R
DODGE CITY     PTCLDY    38  31  76 W8        30.11R WCI  32
OKLAHOMA CITY  TSTM      55  53  93 N17       29.96F
DALLAS         TSTM      63  61  93 NE13      29.95R VSB 3/4
AMARILLO       CLEAR     41  33  73 N5        30.16R
$$




USA.gov is the U.S. government's official web portal to all federal, state and local government web resources and services.